History for DFW, Texas on Wednesday, October 6, 2004

Jump to data by:

Latest visited Airport Codes: DFW

Data type:
 

« Previous Day | Next Day »

 
Daily Summary
Actual Average (KDFW) Record (KDFW)
Temperature
Mean Temperature 74 °F 71 °F  
Max Temperature 84 °F 81 °F 96 °F (1956)
Min Temperature 66 °F 60 °F 43 °F (1915)
Degree Days
Heating Degree Days 0 1  
Month to date heating degree days 6  
Since 1 July heating degree days 12  
Cooling Degree Days 9 7  
Month to date cooling degree days 44  
Year to date cooling degree days 2621  
Growing Degree Days 24 (Base 50)    
Moisture
Dew Point 62 °F    
Average Humidity 68    
Maximum Humidity 90    
Minimum Humidity 54    
Precipitation
Precipitation 0.00 in 0.11 in 3.44 in (1930)
Month to date precipitation 0.60  
Year to date precipitation 27.26  
Snow
Snow 0.00 in 0.00 in 0.00 in ()
Month to date snowfall 0.0  
Since 1 July snowfall 0.0  
Since 1 September snowfall 0.0  
Snow Depth -    
Sea Level Pressure
Sea Level Pressure 30.10 in    
Wind
Wind Speed 9 mph (SE)    
Max Wind Speed 15 mph    
Max Gust Speed 24 mph    
Visibility 10 miles    
Events Thunderstorm   

Click here for data from the nearest station with official NWS data (KDFW).
Key: T is trace of precipitation, MM is missing value
Source: NWS Daily Summary
Time (CDT) Temp. Dew Point Humidity Sea Level Pressure Visibility Wind Direction Wind Speed Gust Speed Precip. Events Conditions
12:53 AM 69.1 °F 62.1 °F 78% 30.11 in 10.0 miles ESE 5.8 mph - N/A   Scattered Clouds
1:53 AM 69.1 °F 62.1 °F 78% 30.11 in 10.0 miles ESE 9.2 mph - N/A   Scattered Clouds
2:53 AM 68.0 °F 62.1 °F 81% 30.11 in 10.0 miles East 5.8 mph - N/A   Overcast
3:41 AM 69.8 °F 60.8 °F 73% 30.12 in 10.0 miles ESE 8.1 mph - N/A   Overcast
3:53 AM 69.1 °F 60.1 °F 73% 30.10 in 10.0 miles ESE 6.9 mph - N/A   Overcast
4:23 AM 69.8 °F 59.0 °F 68% 30.12 in 10.0 miles East 9.2 mph - N/A   Overcast
4:53 AM 69.1 °F 59.0 °F 70% 30.09 in 10.0 miles East 6.9 mph - 0.00 in   Mostly Cloudy
5:53 AM 68.0 °F 57.0 °F 68% 30.09 in 10.0 miles East 9.2 mph - 0.00 in   Mostly Cloudy
6:53 AM 66.9 °F 54.0 °F 63% 30.12 in 10.0 miles ESE 8.1 mph - N/A   Overcast
7:53 AM 66.9 °F 54.0 °F 63% 30.12 in 10.0 miles ESE 9.2 mph - N/A   Overcast
8:53 AM 68.0 °F 54.0 °F 61% 30.14 in 10.0 miles ESE 11.5 mph - N/A   Overcast
9:53 AM 70.0 °F 55.9 °F 61% 30.14 in 10.0 miles SE 11.5 mph - N/A   Overcast
10:53 AM 72.0 °F 57.9 °F 61% 30.14 in 10.0 miles ESE 9.2 mph - N/A   Overcast
11:53 AM 75.9 °F 61.0 °F 60% 30.13 in 10.0 miles ESE 9.2 mph - N/A   Mostly Cloudy
12:53 PM 80.1 °F 64.0 °F 58% 30.11 in 10.0 miles ESE 12.7 mph 18.4 mph N/A   Mostly Cloudy
1:53 PM 80.1 °F 64.9 °F 60% 30.10 in 10.0 miles SSE 8.1 mph - N/A   Mostly Cloudy
2:53 PM 81.0 °F 64.0 °F 56% 30.07 in 10.0 miles SE 11.5 mph - N/A   Overcast
3:53 PM 82.0 °F 64.9 °F 56% 30.06 in 10.0 miles SSE 12.7 mph 18.4 mph N/A   Overcast
4:53 PM 82.9 °F 64.9 °F 54% 30.05 in 10.0 miles SE 10.4 mph - N/A   Mostly Cloudy
5:53 PM 81.0 °F 64.9 °F 58% 30.06 in 10.0 miles ESE 12.7 mph - N/A   Mostly Cloudy
6:53 PM 79.0 °F 66.0 °F 64% 30.07 in 9.0 miles ESE 11.5 mph - N/A   Mostly Cloudy
7:53 PM 75.9 °F 66.0 °F 71% 30.07 in 9.0 miles ESE 6.9 mph - N/A   Scattered Clouds
8:53 PM 75.9 °F 66.0 °F 71% 30.09 in 9.0 miles SE 8.1 mph - N/A   Mostly Cloudy
9:53 PM 75.0 °F 66.9 °F 76% 30.11 in 9.0 miles South 13.8 mph - N/A   Overcast
10:05 PM 73.4 °F 64.4 °F 73% 30.13 in 10.0 miles South 15.0 mph 24.2 mph N/A Thunderstorm Thunderstorm
10:28 PM 73.4 °F 64.4 °F 73% 30.14 in 10.0 miles South 9.2 mph - N/A   Overcast
10:53 PM 73.0 °F 64.9 °F 76% 30.12 in 10.0 miles SSE 11.5 mph - N/A   Overcast
11:53 PM 70.0 °F 66.9 °F 90% 30.12 in 10.0 miles SE 5.8 mph - 0.00 in   Scattered Clouds

Powered by the Weather Underground, Inc.